Weather in Veliko-Tyrnovo

Bulgaria     43°04′37″N   25°36′58″E
temp.,
°C
wind,
m/s
gust,
m/s
humid.,
%
clouds,
%
prec.,
mm/h
press.,
hPa
HPBL,
m
18 september, sat
sat1800:00+19ssw327812 0.3 101028
03:00+18wsw227881 0.5 101015
06:00+19sw117214 0.0 101011
09:00+20wnw2470100 0.1 1011450
12:00+25wnw464929 0.1 10101419
15:00+26nw8941100 0.1 10091654
18:00+19w4107350 1.3 1011594
21:00+16sw36840 1.3 1013198
19 september, sun
sun1900:00+14sw33780 0.0 101450
03:00+14sw33692 0.0 101440
06:00+13ssw226713 0.0 101423
09:00+19ssw224710 0.0 1014212
12:00+24nnw233173 0.0 10131286
15:00+25n3331100 0.0 1012914
18:00+22n114358 0.1 1011285
21:00+16s22656 0.1 101211
20 september, mon
mon2000:00+16s22665 0.1 101215
03:00+16ssw116812 0.1 101111
06:00+15ssw11750 0.0 101111
09:00+20ne11596 0.0 1011185
12:00+22nne224946 0.0 1010412
15:00+26nne224371 0.8 10091036
18:00+22nw585777 0.7 1011583
21:00+17wnw3869100 0.9 1014334
21 september, tue
tue2100:00+16w2373100 0.0 1015115
03:00+14wnw2282100 0.0 101715
06:00+12sw128666 0.0 101875
09:00+15wnw376474 0.0 1019619
12:00+16wnw474899 0.0 1020765
15:00+20wnw574194 0.0 10201566
18:00+18n4553100 0.0 1020714
21:00+12se11757 0.0 102311
22 september, wed
wed2200:00+11s217818 0.0 102214
03:00+13w2370100 0.0 102293
06:00+13w115694 0.0 102213
09:00+14w1347100 0.0 1022400
12:00+16wnw354093 0.0 10211353
15:00+18wnw5639100 0.0 10191938
18:00+17nnw4640100 0.0 10191289
21:00+12n1251100 0.0 102071